Tracking 20626 objects as of 8-Apr-2020
HD Live streaming from Space Station
objects crossing your sky now

THOR ABLESTAR R/B

Track THOR ABLESTAR R/B now!
10-day predictions


NORAD ID: 204
Int'l Code: 1961-031C
Perigee: 952.2 km
Apogee: 1,098.1 km
Inclination: 32.4 °
Period: 105.5 minutes
Semi major axis: 7396 km
RCS: 3.5845 m2 (large)
Launch date: November 15, 1961
Source: United States (US)
Launch site: AIR FORCE EASTERN TEST RANGE (AFETR)

Note: This is a ROCKET BODY
aabbcc
Your satellite tracking list
Your tracking list is empty




NASA's NSSDC Master Catalog

Two Line Element Set (TLE):
1   204U 61031C   20099.49649658 +.00000022 +00000-0 +10921-5 0  9990
2   204 032.4414 243.1581 0098660 027.1261 333.4472 13.64873593913961
Source of the keplerian elements: AFSPC